Retour au catalogue

DELTA 1 DEB

ActifPO
NORAD 12227·DEBRIS·🇺🇸 United States

Lancé Mar 5, 1978 depuis Vandenberg Space Force Base

Loading…

Prochains Passages (prochaines 24 heures)

TLE

FraisSource: Space-Track

Époque: Sep 14, 2026, 01:27 UTC

1 12227U 78026BU  26257.06074630  .00003230  00000-0  26964-3 0  9993
2 12227  98.7837 106.5644 0063249 274.2539  85.1454 14.97911259413205

Suivez DELTA 1 DEB en temps réel avec AllMySat

Download on the App Store